THOR ABLESTAR DEB, 21986

Orbit data source: Space-Track

THOR ABLESTAR DEB, 21986 is space debris in LEO originally from a launch on Thu, 29 Jun 1961 UTC launched from the Air Force Eastern Test Range (AFETR). Debris objects in space refer to the collection of defunct objects orbiting the Earth. Examples of debris include non-operational satellites, rocket bodies, and fragments generated from explosions, collisions, or faulty payload assembly.

Loading next visibility...
Identifier
21986, 1961-015MM
Orbit
LEO
Country
Flag of USUS
Related business
Manufacturer
Unknown
Mission
Spacecraft
Bus & Motor
Unknown
Mass
Unknown
Launch date (UTC)
1961-06-29 (65 years ago)
Launch vehicle
Unknown
Launch site
Air Force Eastern Test Range (AFETR)
Object type
Payload
Rocket body
Debris
Shape & HBR
Unknown shape, 0.1 m
Radar Cross Section
Small (<0.1 m²)

Expand to show TLE details & history
Last TLE update: 11 hours ago

TLE from 11 hours ago
0 THOR ABLESTAR DEB
1 21986U 61015MM  26138.55970727 -.00000057  00000-0  12783-4 0  9999
2 21986  66.8765 240.0834 0089968  51.4092 321.9146 14.06368571748734
Epoch: 2026-05-18T13:25Z
TLE epoch observation values (Epoch: 2026-05-18T13:25:58.708Z)
Latitude
11.61879°
Longitude
167.35287°
Altitude
822.044 km
Speed
7.47 km/s
True Right ascension
16h 20m 22s
True Declination
11° 33' 06"
Sunlit
Object was in full shadow at epoch
Visualization orbit readout
Latitude
Unknown
Longitude
Unknown
Altitude
Unknown
Speed
Unknown
Apparent Right ascension
Unknown
Apparent Declination
Unknown
Sunlit
N/A
Visualization observer readout
Local Sidereal Time
09:32:19
Azimuth
Unknown
Elevation
Unknown
Doppler factor
Unknown
Orbital elements
Apogee altitude
935.409 km
Perigee altitude
804.986 km
Semi-major axis
7,248.335 km
Eccentricity
0.009
Inclination
66.8765°
RAAN
240.0834°
Arg. of periapsis
51.4092°
True anomaly
321.27301°
Mean anomaly
321.9146°
Eccentric anomaly
321.59437°
Mean motion
3.51711 °/min
Orbital period
102.36 mins
BSTAR
0.000012783
Loading maneuver chart data...
Computing Atmospheric mass density...
Loading historical data...
Loading historical data...
Loading historical data...
Loading historical data...
Loading historical data...
Loading historical data...
Loading historical data...

Documentation

Showing up to 5 results
|